GFSNGP_sfc_30mbdewp_276.txt.gz
Dewpoint
10 10 11 12 12 13 11 10 9 10 9 8 9 11 14 17 18 21 17 16 18 20 24 27 29 36 43 47 51 47 45 43 43 42 42 40 39 38 37 36 35 34 33 32
14 12 12 10 10 10 10 10 10 11 10 12 14 14 14 16 21 18 16 17 20 23 26 28 31 37 44 49 48 45 43 42 42 41 41 40 39 38 37 36 34 33 32 31
11 11 11 10 9 8 8 8 9 9 12 13 14 12 13 22 19 18 18 18 20 25 29 30 34 39 45 45 44 43 42 41 40 39 38 37 35 34 33 34 33 33 31 30
14 13 9 7 9 10 10 10 11 11 12 14 14 13 12 18 19 18 19 21 23 28 30 33 37 40 43 42 41 39 38 37 36 35 34 33 32 31 31 32 31 31 29 26
15 11 11 9 7 5 7 9 11 14 14 12 14 14 18 20 20 19 20 23 24 29 32 34 39 40 39 37 36 34 33 33 33 32 32 32 32 32 31 30 29 27 25 23
16 15 10 4 10 11 12 10 11 11 11 17 19 17 17 22 20 20 19 22 26 32 33 37 39 39 36 34 33 32 32 32 32 32 32 31 31 30 31 30 26 20 18 19
16 16 16 13 13 12 10 8 12 14 16 17 20 21 23 23 20 19 22 22 31 34 36 37 39 36 34 33 31 33 33 32 31 31 30 30 29 29 27 22 19 18 18 18
13 14 13 13 13 14 17 22 21 20 18 19 20 19 20 20 20 21 23 25 35 35 36 37 36 34 32 30 31 31 31 30 30 30 29 27 24 24 24 23 20 17 18 18
15 14 17 19 19 20 20 20 23 25 25 24 22 21 20 21 22 23 25 33 35 35 35 34 34 32 29 30 30 30 29 27 27 26 24 22 22 21 20 19 18 17 17 17
19 19 20 22 26 26 30 32 30 28 25 26 28 23 22 23 23 24 32 36 36 33 31 29 30 30 30 30 30 29 27 26 24 22 21 20 19 19 19 19 18 17 17 17
21 22 27 25 24 25 26 29 30 29 34 31 27 29 25 25 25 32 35 35 34 31 29 28 29 29 30 30 29 27 24 23 22 20 18 18 20 19 17 17 17 16 17 17
25 29 28 26 26 25 27 27 29 28 30 33 34 30 28 29 33 34 33 32 30 28 27 28 28 28 28 30 26 23 21 20 20 19 17 17 16 15 15 14 13 13 13 14
28 29 27 25 25 26 27 29 28 28 31 32 34 35 34 33 34 33 31 28 27 26 27 27 26 26 27 24 23 20 19 19 19 18 16 15 15 15 17 17 13 10 8 8
25 25 21 23 24 31 25 24 26 27 28 29 32 36 37 32 30 28 26 26 26 26 26 25 24 23 23 22 21 20 19 19 17 16 15 15 15 14 14 12 11 8 5 3
23 22 22 24 29 31 31 29 28 29 29 33 35 32 29 26 25 24 25 26 25 24 24 23 21 21 21 19 16 15 14 13 13 13 12 11 9 8 6 4 3 2 -0 -0
23 21 21 25 27 27 29 30 29 29 29 28 27 26 25 25 25 25 26 26 22 21 21 21 20 19 18 15 13 12 12 12 10 9 7 5 4 3 2 2 1 0 0 -1
20 19 19 22 25 25 25 26 26 25 25 24 24 24 23 23 22 22 22 23 22 20 20 19 19 18 14 13 11 11 10 8 6 3 2 2 2 1 1 1 0 -0 0 2
22 23 24 24 24 23 23 23 23 23 23 23 24 23 22 20 19 19 20 19 19 19 18 18 17 15 12 11 9 7 3 -0 -1 0 1 1 0 1 2 1 0 1 1 1
21 22 23 23 23 22 22 22 22 23 23 22 21 20 20 20 20 20 19 18 17 15 15 13 12 10 9 8 4 2 1 0 0 1 1 2 4 0 0 1 1 3 3 3
21 21 21 21 22 22 22 22 22 22 22 21 20 19 18 19 19 18 17 15 12 11 10 9 7 6 4 3 1 0 0 -1 -2 2 3 3 4 5 2 1 1 4 5 4
21 20 20 20 20 21 21 21 20 20 21 20 19 18 18 17 16 15 12 11 11 11 9 8 6 2 -0 -0 1 4 4 4 4 5 6 6 5 4 4 4 4 4 4 4
21 20 20 20 20 21 21 21 20 20 19 18 17 17 16 15 15 15 14 12 12 10 8 7 4 4 1 1 2 3 2 3 4 4 4 4 4 4 3 3 3 3 3 3
22 20 20 20 20 20 20 20 20 19 18 17 16 14 11 10 10 10 10 10 9 8 5 5 6 7 7 8 7 6 5 5 4 4 5 5 4 4 3 2 3 3 2 2
20 20 19 19 19 18 17 17 16 17 17 16 16 14 12 13 11 11 11 11 11 10 7 7 7 6 7 8 7 6 6 6 6 5 4 3 5 4 3 2 2 2 2 1
20 19 19 18 17 16 15 14 13 12 11 11 11 12 12 13 13 12 12 10 7 5 5 6 6 7 8 7 6 6 5 5 5 5 5 4 4 3 3 2 2 1 1 1
16 17 17 16 15 15 14 14 13 13 13 15 15 16 15 14 13 12 12 10 10 9 9 9 9 8 7 6 5 5 5 4 4 4 4 4 3 3 2 2 2 2 1 1
15 15 13 14 14 14 14 13 14 13 14 15 15 16 15 15 13 12 13 12 11 10 9 8 8 7 6 5 4 4 4 2 2 4 4 4 4 3 2 2 2 2 1 0

GFSNGP_sfc_30mbdewp_279.txt.gz
Dewpoint
12 11 10 9 8 7 6 6 6 6 5 6 6 10 15 17 16 19 21 20 19 20 22 26 27 31 36 45 46 46 43 42 41 41 40 39 38 36 36 35 34 34 32 32
15 10 7 6 7 7 7 6 5 4 3 6 8 9 13 15 14 22 29 24 18 20 22 26 29 33 37 43 43 42 41 41 41 38 36 36 36 35 33 32 32 31 29 29
10 11 12 11 11 8 6 6 7 6 8 9 9 9 10 12 12 26 30 20 21 22 23 28 31 34 38 42 41 39 38 37 36 34 33 33 34 33 32 32 32 30 28 27
15 14 12 11 9 10 8 7 7 7 7 9 9 11 10 11 21 24 20 18 20 22 25 29 34 36 39 38 37 36 35 34 34 33 32 32 32 31 31 30 29 30 28 27
16 14 14 14 8 11 11 10 10 10 10 11 12 12 16 24 23 21 20 19 19 20 28 33 37 39 37 35 34 33 32 32 33 33 32 32 31 30 30 28 28 27 27 23
18 17 14 12 14 15 14 11 13 20 20 23 27 19 15 26 30 29 22 20 19 24 33 34 37 37 35 33 32 31 31 31 32 32 31 30 30 29 29 28 25 21 21 21
18 21 19 17 16 19 20 17 26 27 27 26 26 31 33 29 24 19 18 20 23 32 35 36 36 35 32 31 30 31 31 31 31 30 29 29 28 27 25 23 23 22 20 19
16 18 16 20 18 18 25 31 31 31 31 32 31 28 29 30 25 21 19 21 31 34 35 35 34 33 30 29 31 31 31 29 28 28 26 24 23 21 20 19 19 19 19 20
17 16 19 21 23 27 26 26 27 27 31 30 34 35 28 28 30 25 23 32 35 34 33 33 32 31 29 30 31 29 27 27 26 24 22 20 20 20 20 19 19 18 19 19
20 20 21 25 26 26 27 28 26 28 28 29 32 32 35 32 33 28 33 35 33 32 30 29 30 30 30 30 29 28 26 24 22 22 21 20 18 17 17 18 18 18 17 17
22 22 27 26 27 27 28 28 31 27 27 30 32 29 32 34 33 35 34 33 32 30 29 29 30 30 30 30 29 26 23 21 19 18 16 15 16 17 15 15 15 15 17 17
26 29 29 28 28 28 27 28 32 23 27 28 29 31 36 35 38 35 32 30 29 28 28 28 28 28 29 29 24 21 18 18 17 17 16 16 17 18 15 14 11 10 10 12
30 29 27 27 27 27 29 33 32 24 25 27 30 34 37 35 33 31 29 28 28 27 27 27 26 26 24 22 20 19 17 17 17 16 16 16 16 16 17 18 12 9 6 7
28 26 25 26 25 29 30 30 32 29 27 28 35 34 31 29 28 27 27 27 27 26 26 25 23 21 21 20 18 18 17 18 17 16 15 14 13 12 11 9 8 6 4 5
26 25 25 26 28 27 28 29 27 28 30 29 29 28 27 25 25 26 27 27 26 25 24 22 20 19 18 17 15 14 14 13 12 10 8 7 7 6 6 5 4 3 2 3
25 24 25 25 26 26 27 27 26 26 27 27 25 26 26 26 26 26 27 26 22 21 20 20 18 16 15 14 13 11 10 8 7 6 6 6 5 4 4 4 3 2 3 3
23 23 23 23 24 24 25 26 25 24 25 24 24 25 24 23 23 22 23 23 20 19 19 18 17 17 13 12 10 7 5 4 6 4 4 4 5 4 3 4 4 4 3 6
23 23 24 24 23 23 25 25 24 23 23 24 23 23 22 21 20 20 20 18 19 18 16 15 14 13 10 6 3 2 2 2 3 4 5 4 2 4 5 5 5 6 6 6
23 22 23 23 24 25 24 24 23 23 23 22 22 21 21 21 20 18 18 17 16 13 12 11 10 5 3 6 3 3 4 4 5 6 6 7 8 5 5 5 6 8 7 7
22 23 23 23 24 23 23 24 23 22 22 21 21 20 19 20 19 18 16 13 10 9 7 5 2 1 2 4 5 5 6 6 5 8 8 8 9 9 7 7 7 8 8 8
22 22 21 21 22 22 22 22 23 23 23 21 20 18 17 17 17 15 11 10 10 9 6 3 0 -0 1 3 5 8 8 8 8 9 10 11 10 8 8 8 8 8 8 8
23 22 22 22 21 22 22 22 21 21 20 19 19 18 18 16 16 15 14 11 11 9 5 4 5 7 5 6 7 8 7 8 9 10 9 9 9 8 7 7 7 7 7 7
24 23 22 22 21 21 21 21 21 19 18 17 16 14 11 10 10 10 10 9 7 5 5 9 10 11 12 13 12 11 10 10 10 10 10 10 9 8 7 6 7 7 6 5
23 22 22 22 21 21 20 19 17 18 19 18 17 15 13 14 12 11 11 10 10 11 10 11 11 11 12 13 12 12 12 11 11 10 9 8 9 8 8 6 6 6 5 5
22 21 21 21 19 18 15 13 12 12 12 12 13 13 13 14 13 12 11 8 6 7 9 10 11 12 13 12 11 10 9 9 9 9 9 8 8 7 7 6 6 5 5 4
21 21 20 19 16 14 14 12 12 12 13 17 17 18 17 15 14 14 13 9 9 10 12 13 13 12 11 11 10 10 10 9 9 8 8 8 8 7 6 6 6 5 4 4
17 17 16 15 14 14 14 14 14 13 15 18 17 18 17 17 16 15 14 14 13 12 12 13 12 11 11 10 10 9 8 7 6 8 8 8 8 7 6 6 6 5 4 3

GFSNGP_sfc_30mbdewp_282.txt.gz
Dewpoint
16 14 13 11 8 5 4 4 4 6 6 7 9 11 12 12 12 11 17 29 27 25 26 25 31 34 38 40 42 42 42 40 38 37 37 35 34 32 31 30 30 30 30 30
17 14 9 8 11 12 10 8 7 6 7 11 11 11 11 11 12 11 25 28 25 24 24 27 33 35 39 39 39 39 37 36 36 35 34 33 33 32 31 29 28 27 28 28
15 13 14 13 11 11 11 10 9 8 12 13 17 23 26 18 16 21 25 23 20 19 22 34 36 38 37 37 37 36 35 34 33 33 32 32 31 31 30 30 28 27 26 26
16 17 14 15 16 12 13 15 16 15 20 22 24 25 27 31 34 33 29 27 25 21 37 38 37 37 36 35 34 34 33 33 33 32 31 31 30 29 29 28 28 28 27 26
17 17 17 16 14 15 17 17 20 27 28 28 28 28 28 28 35 36 36 37 36 33 36 37 37 35 34 33 33 32 31 31 31 31 30 30 29 29 28 28 26 24 23 23
20 17 14 14 17 20 19 16 30 29 26 26 27 27 27 32 32 31 33 34 37 36 35 36 35 34 33 31 31 30 30 30 31 31 30 29 30 30 27 25 24 23 23 22
19 21 22 20 20 21 18 23 29 27 27 27 25 27 30 30 33 35 32 34 36 35 34 34 33 32 30 30 29 30 30 30 30 29 27 26 26 24 23 23 23 22 21 20
18 19 18 22 21 25 27 28 27 27 27 28 30 31 30 27 28 36 31 37 34 33 33 32 31 30 30 29 30 30 29 28 28 26 25 25 23 22 21 21 21 21 21 21
18 18 22 23 27 26 27 27 28 28 30 31 30 30 27 26 31 37 37 34 32 32 31 30 32 31 28 29 29 29 28 26 24 22 21 20 20 20 21 20 21 19 18 19
22 21 21 26 25 27 28 28 28 29 32 28 28 27 27 32 34 37 36 32 31 29 28 28 29 29 28 29 28 24 23 21 19 17 18 18 18 16 16 17 16 17 19 17
22 24 28 26 28 28 28 28 29 33 27 24 28 30 28 33 36 34 33 32 29 28 28 28 29 29 29 29 26 24 22 21 19 18 17 17 17 18 15 15 13 13 14 15
25 30 30 29 28 28 28 29 31 33 26 24 31 35 35 34 33 32 30 28 28 27 27 27 28 28 27 24 21 19 18 18 19 19 19 20 22 19 16 13 10 9 10 12
31 30 28 28 28 28 28 30 30 32 33 33 33 32 31 29 30 29 28 27 26 26 26 26 24 22 22 22 21 20 19 19 19 18 17 17 16 15 16 16 12 8 7 9
28 27 26 27 27 28 28 30 29 29 29 30 29 29 28 27 27 26 25 26 25 25 24 22 21 21 20 19 18 17 17 16 15 14 14 14 13 13 13 12 11 10 7 8
27 26 26 28 28 27 27 28 27 27 28 27 27 27 26 25 24 24 25 24 23 22 21 20 19 18 18 16 14 12 12 11 11 12 11 10 10 10 9 9 8 8 9 9
26 26 25 26 26 25 25 25 24 25 26 25 24 25 25 24 24 24 24 23 21 20 20 19 18 16 16 13 10 8 10 11 10 9 10 10 9 9 9 9 9 8 9 8
24 23 23 24 23 23 23 24 24 25 25 25 24 23 22 22 22 21 21 20 20 19 18 17 17 16 11 9 8 8 9 9 9 8 8 8 8 9 9 10 10 9 9 11
24 25 25 25 24 24 24 23 23 24 23 24 23 21 20 19 19 19 19 18 17 16 15 16 12 10 9 8 7 8 8 9 9 10 11 11 9 9 10 10 10 11 11 11
23 23 23 24 24 24 23 23 24 24 25 24 22 21 20 19 19 18 18 16 14 11 10 8 8 6 7 11 8 9 10 10 10 12 11 11 13 11 10 10 11 11 11 10
23 23 22 24 25 24 23 24 23 23 24 24 22 20 19 18 17 16 15 12 9 7 5 5 5 6 8 11 11 12 12 12 11 12 13 12 12 12 11 10 10 11 10 10
23 23 23 22 23 24 24 24 23 23 23 21 19 17 17 17 17 15 12 9 6 6 6 6 5 5 7 9 10 13 13 13 12 13 13 13 12 11 10 11 10 10 9 10
24 23 22 22 22 23 24 23 22 22 21 20 20 19 17 15 15 15 14 11 8 8 9 10 13 13 11 12 13 13 12 13 13 13 13 12 12 11 10 9 10 9 9 8
24 23 23 23 22 22 22 21 21 20 18 18 18 17 13 12 12 11 9 7 7 10 11 14 15 16 16 17 16 15 14 14 13 12 12 12 12 11 10 9 9 9 8 7
24 23 23 23 22 21 20 19 18 20 20 18 17 17 14 15 13 11 11 13 14 15 15 15 15 16 16 17 16 16 15 14 13 12 12 11 11 10 10 9 8 8 8 6
25 24 23 23 22 21 19 17 16 15 15 14 15 14 14 15 15 13 12 11 12 12 14 14 15 15 16 15 14 13 12 12 12 12 12 11 10 10 9 9 8 7 7 6
24 24 24 22 21 18 15 14 13 13 13 16 17 20 19 17 15 14 13 12 13 14 16 16 16 16 15 14 14 13 13 12 11 11 11 11 10 9 9 9 8 7 6 6
24 23 22 20 18 17 15 15 15 15 18 20 20 20 19 19 18 15 15 16 16 16 15 15 15 14 14 14 13 12 11 10 9 11 11 11 10 10 9 9 8 7 6 5

GFSNGP_sfc_30mbdewp_285.txt.gz
Dewpoint
20 19 18 16 15 12 12 12 10 10 10 12 21 24 26 27 29 31 32 31 31 26 30 37 39 38 38 37 38 37 36 35 34 33 33 33 31 30 29 28 29 29 29 29
19 19 16 15 15 15 13 12 12 15 16 27 28 28 27 27 27 30 33 35 35 36 37 38 37 37 36 36 36 35 34 33 33 32 31 31 30 31 30 27 26 26 27 27
17 18 18 15 17 16 16 17 17 20 27 28 26 25 26 26 26 29 34 36 37 36 38 37 36 35 34 34 35 34 33 33 32 31 30 30 29 27 26 27 27 24 24 25
18 19 8 19 19 20 20 19 28 27 26 26 26 26 26 25 26 30 32 38 38 38 39 37 35 33 33 33 33 32 31 31 31 30 29 29 28 28 28 26 24 24 23 23
13 18 18 19 19 20 19 23 27 26 26 26 26 26 23 25 27 27 27 32 37 40 38 34 33 33 31 30 30 30 29 29 30 30 29 29 28 27 27 26 24 23 23 21
20 17 12 16 22 24 22 17 27 27 26 26 26 23 24 27 28 29 29 30 37 37 34 33 33 31 28 28 28 28 28 29 30 27 27 26 26 25 25 24 22 21 19 18
18 18 23 22 26 24 18 21 28 27 27 26 27 28 28 29 28 28 29 36 36 34 33 32 31 28 27 27 27 28 28 27 26 25 25 25 24 23 22 21 21 21 19 18
20 19 18 27 27 24 27 28 28 27 28 29 29 27 29 29 31 34 34 34 33 32 30 30 29 27 26 26 28 28 25 24 21 20 20 20 20 20 19 20 20 17 16 16
20 20 27 28 28 28 28 28 28 28 28 31 26 26 31 33 34 34 33 32 32 30 29 29 27 26 26 26 25 22 21 20 20 19 16 14 13 13 15 14 16 16 16 14
22 23 28 29 28 29 29 28 29 30 30 33 24 27 34 34 33 32 32 30 29 26 26 26 27 27 28 26 24 22 19 17 18 18 18 18 16 14 14 13 13 13 14 14
24 26 28 29 28 28 29 29 31 30 33 33 33 34 34 32 31 30 29 28 27 27 26 26 28 27 27 25 23 22 22 22 20 19 19 18 17 16 14 14 12 13 14 15
25 31 29 29 28 29 28 29 30 30 30 32 32 31 30 29 29 28 27 26 25 25 24 24 23 23 23 23 22 20 19 19 18 17 17 20 20 18 14 13 10 12 13 15
30 29 28 28 28 28 28 30 29 29 30 29 30 29 27 27 26 25 24 23 23 23 22 22 21 20 21 20 19 19 16 16 15 14 14 15 15 15 14 15 13 10 12 14
28 27 26 28 27 28 27 28 27 27 28 28 28 28 26 24 24 23 23 23 22 21 20 20 18 17 18 18 17 15 14 15 14 14 14 13 13 13 13 12 11 11 10 11
26 27 28 28 27 26 27 26 25 25 26 26 26 25 23 22 22 22 21 20 20 19 18 18 17 16 15 12 12 11 11 11 12 12 12 12 11 12 11 11 11 11 10 10
26 25 26 26 26 25 25 25 23 24 24 23 23 22 22 21 21 21 20 19 18 17 18 18 17 15 13 11 10 10 11 11 10 10 10 11 11 11 12 11 11 11 11 10
23 23 24 24 25 25 24 24 24 24 23 22 22 22 21 20 19 19 18 18 18 17 16 14 12 13 12 11 11 11 12 12 13 12 11 11 11 11 11 11 11 11 11 11
25 25 27 26 26 25 24 24 23 22 22 22 21 19 18 18 17 16 15 13 10 9 10 11 12 12 12 11 11 12 12 13 12 13 13 13 11 11 11 11 10 10 10 9
24 24 25 25 26 24 23 23 23 23 22 20 19 18 18 17 16 16 14 10 8 7 7 10 12 13 14 15 14 14 13 13 14 13 12 12 12 12 11 10 10 9 9 9
23 23 25 24 24 24 23 23 22 22 22 20 19 18 17 16 15 13 12 11 11 9 10 10 10 12 13 14 14 14 14 14 13 13 12 12 10 10 11 10 9 8 8 8
22 23 22 23 22 23 22 22 21 20 19 18 17 15 14 15 14 11 8 8 10 12 13 11 11 11 12 13 14 15 14 14 13 12 11 10 9 9 8 9 8 8 7 7
22 22 21 22 23 23 24 23 21 19 19 19 19 18 17 16 14 13 11 10 12 13 14 15 15 14 14 14 14 14 13 13 13 12 11 10 9 8 7 8 7 8 7 5
22 22 22 21 22 23 22 21 20 19 18 17 15 15 14 14 13 11 9 10 13 14 16 17 17 17 17 16 15 13 13 12 11 11 10 9 8 8 7 7 7 6 6 4
23 23 23 23 23 22 21 20 19 19 18 18 17 16 15 13 12 13 14 14 14 15 16 17 17 16 15 14 13 12 12 11 11 9 9 8 7 8 7 6 6 5 5 3
24 23 24 22 22 21 20 19 20 19 17 16 16 17 17 16 13 13 13 13 14 15 15 15 15 14 12 10 9 9 9 10 10 9 8 7 7 7 7 6 5 5 4 3
25 24 24 23 23 22 20 19 18 18 16 15 19 18 17 16 13 12 13 14 14 14 15 15 14 13 12 12 11 11 10 10 9 9 8 9 8 7 7 7 6 4 3 1
25 25 25 24 22 20 18 17 17 16 17 19 19 17 16 16 15 13 13 15 16 14 12 12 12 11 10 8 7 6 7 7 8 8 8 8 7 8 7 6 5 3 2 0

GFSNGP_sfc_30mbdewp_288.txt.gz
Dewpoint
20 20 19 19 18 15 13 13 11 12 15 27 27 26 25 25 24 24 26 34 36 37 38 39 37 36 35 35 35 35 33 32 31 29 30 29 29 29 28 27 28 28 27 27
17 19 18 17 17 17 15 16 16 19 20 27 26 26 25 24 24 24 28 26 24 32 38 37 36 35 33 33 34 34 31 31 29 28 28 28 28 26 26 26 26 25 25 25
13 20 17 12 17 17 18 26 25 23 26 26 25 24 25 25 24 24 25 26 27 28 34 37 35 34 33 32 32 31 30 28 28 28 28 30 30 28 26 25 24 22 22 23
17 17 -2 16 20 21 24 26 26 26 25 26 25 26 26 24 24 28 32 30 29 31 36 36 35 32 30 30 28 28 28 28 28 28 29 30 29 27 26 24 21 20 20 20
12 16 15 19 21 20 20 24 26 25 25 25 26 26 22 24 28 30 31 29 33 36 36 34 32 30 28 26 25 26 26 28 29 28 26 26 25 26 25 23 21 18 18 18
18 13 7 17 25 25 24 20 27 26 25 26 25 19 20 27 30 33 34 34 33 33 33 31 29 27 26 26 27 27 26 25 24 23 23 22 22 23 21 19 18 17 16 16
18 15 18 25 25 26 17 19 27 27 26 25 24 26 27 30 34 34 33 32 32 32 30 29 27 26 25 25 25 25 22 21 20 20 19 20 19 18 19 18 16 15 14 16
19 18 15 27 25 21 25 27 27 27 27 27 29 29 30 33 33 32 31 31 31 29 28 28 27 26 26 25 25 23 20 18 17 17 16 15 14 14 14 14 14 14 14 15
20 20 27 27 27 28 28 27 28 29 30 30 31 29 33 32 32 30 29 26 26 26 26 26 26 25 23 22 20 18 19 19 20 19 17 15 14 13 13 14 15 14 14 15
22 27 28 28 29 29 28 28 30 30 30 31 30 32 33 31 29 29 28 28 26 25 25 26 28 27 25 24 22 19 18 20 21 20 17 15 15 14 13 14 15 16 15 16
24 29 28 28 28 28 28 30 29 29 31 31 32 31 29 29 27 27 27 27 26 25 24 23 22 22 23 22 22 20 20 19 20 21 20 18 16 16 14 15 15 16 17 15
22 28 27 28 28 28 28 29 29 29 30 31 30 29 27 26 27 25 24 24 23 22 21 20 20 20 20 21 19 17 15 15 15 15 15 16 17 15 14 13 12 13 14 14
29 30 28 28 28 28 29 29 29 29 29 29 28 26 25 25 24 24 23 23 21 19 17 17 17 19 20 18 17 16 14 14 15 14 14 14 14 14 13 13 12 10 11 13
29 28 27 27 26 27 29 28 28 28 28 27 26 25 24 23 23 22 21 19 18 16 15 15 14 14 16 15 15 14 14 15 14 14 14 14 14 13 13 12 11 10 8 8
27 27 26 28 27 28 28 27 26 25 24 24 24 22 21 20 20 19 18 18 18 17 16 13 12 12 13 12 12 11 11 11 12 13 13 13 13 12 12 11 10 9 8 7
27 27 27 26 26 27 26 25 24 23 22 22 22 21 21 20 19 17 17 16 14 13 13 13 14 14 14 13 13 13 13 14 12 11 12 12 12 11 10 10 9 9 8 7
23 24 25 25 25 26 25 25 24 23 22 21 20 20 19 17 16 15 13 13 13 13 14 13 13 14 15 14 14 14 14 14 13 13 12 11 11 11 10 9 8 8 8 8
22 24 25 26 25 25 25 25 24 22 21 21 19 18 17 16 13 9 8 7 8 10 13 14 14 14 14 14 14 14 13 13 12 12 12 12 11 10 9 8 7 7 7 6
25 25 26 26 26 25 23 22 21 20 20 18 17 16 16 14 12 10 8 7 7 9 12 15 16 15 15 16 15 15 14 13 12 11 10 9 9 10 9 8 7 6 6 5
24 25 25 25 24 23 22 21 21 19 18 17 17 16 15 16 14 12 12 12 13 13 13 13 13 14 14 15 14 14 13 12 11 10 9 8 8 7 7 7 6 5 4 4
24 23 22 23 22 21 20 20 20 19 18 17 16 15 14 12 9 10 10 10 13 14 13 13 13 13 14 15 15 14 13 12 11 10 8 6 6 6 5 5 5 5 3 2
23 23 22 22 22 21 21 20 19 18 17 15 13 15 14 12 12 12 11 12 15 16 16 15 15 14 14 14 13 13 12 11 10 9 8 7 6 5 4 4 3 3 2 1
23 22 22 22 22 23 23 21 18 17 16 15 15 16 15 14 12 10 10 13 15 16 17 17 16 15 15 14 12 11 10 9 8 7 6 6 5 4 4 4 3 2 0 -1
23 22 22 22 23 21 20 20 19 18 16 16 14 15 15 14 13 13 13 14 15 16 17 16 16 14 13 11 11 10 9 7 7 6 6 6 5 5 4 3 2 1 -0 -2
23 23 23 23 22 21 20 20 19 19 18 18 17 16 15 14 11 13 14 14 15 16 15 13 12 11 9 8 8 8 8 8 7 6 5 5 5 5 4 3 1 -0 -2 -3
23 23 23 23 21 22 19 19 18 18 17 16 17 17 16 15 14 13 14 14 14 14 14 13 12 10 9 9 9 8 8 8 7 7 6 7 6 5 4 3 1 -1 -2 -4
25 24 24 23 23 22 19 20 19 19 17 17 16 15 13 12 12 13 13 13 13 14 13 11 10 10 8 8 8 7 7 7 6 6 5 4 5 5 4 2 -0 -2 -3 -4

GFSNGP_sfc_30mbdewp_294.txt.gz
Dewpoint
13 16 20 19 18 18 15 13 8 10 15 24 25 24 24 25 24 27 28 29 30 30 32 35 33 33 32 31 31 30 28 29 29 29 28 26 22 21 21 21 21 23 23 25
12 19 20 18 17 17 17 16 15 17 20 26 25 24 24 25 27 28 30 30 32 33 33 31 31 30 30 28 27 28 28 28 27 27 27 26 25 23 20 19 20 20 22 23
-1 18 12 -6 10 15 18 23 20 16 23 25 22 23 25 25 28 29 30 31 31 31 30 30 29 28 26 26 27 26 25 24 24 24 24 23 21 19 19 19 19 19 19 21
9 12 -17 1 19 21 21 25 26 25 25 24 24 26 25 28 30 29 31 30 30 30 28 29 28 27 26 24 24 23 22 22 21 21 20 20 20 20 19 18 18 18 18 19
4 10 8 14 23 21 19 19 26 25 25 25 26 23 22 30 30 31 29 30 30 28 25 26 25 24 24 22 20 18 18 18 17 17 17 17 17 18 18 18 17 16 17 17
15 3 -8 10 23 25 22 18 27 26 24 24 25 14 20 29 31 30 28 28 27 25 24 25 26 22 19 18 18 19 18 18 18 16 16 16 17 17 18 17 16 16 15 17
15 11 13 18 25 25 17 14 27 27 25 25 23 22 27 33 30 29 28 27 26 24 24 23 21 18 18 19 19 20 20 19 18 18 15 16 17 17 17 16 15 15 15 16
19 16 7 26 24 20 23 28 27 27 26 26 27 28 32 30 28 26 25 25 24 23 25 25 21 19 19 20 21 21 21 19 18 18 17 15 16 16 15 15 14 14 14 15
19 17 25 28 26 28 27 25 26 26 28 28 27 28 32 28 27 25 24 25 25 25 24 23 24 24 18 21 22 21 21 21 20 19 19 14 14 14 14 14 14 14 14 14
21 25 25 26 28 27 27 26 28 29 29 29 30 31 29 28 26 24 24 25 23 21 21 20 20 21 21 21 19 17 17 17 17 18 16 15 15 13 13 14 14 14 14 14
25 27 27 27 27 27 27 29 29 29 30 31 31 30 27 27 25 24 23 23 21 20 18 17 17 17 18 18 18 17 17 16 15 15 14 15 14 14 13 13 13 13 14 15
20 26 26 27 28 28 28 29 29 29 31 31 30 29 27 26 25 23 22 20 19 17 15 14 15 15 17 19 18 16 14 14 14 14 14 13 13 12 12 11 10 10 10 13
23 29 28 29 29 29 29 29 29 28 29 28 28 28 26 24 23 22 19 17 15 14 13 13 13 14 17 17 16 15 15 14 14 13 13 12 12 11 9 9 8 6 7 7
30 28 27 28 27 29 29 29 29 29 28 28 27 25 24 23 22 18 15 15 13 11 11 12 13 14 15 15 14 13 13 14 14 13 13 11 10 9 9 7 5 5 4 4
27 26 26 28 28 29 29 28 27 26 25 25 25 23 21 19 18 16 15 12 11 11 12 12 14 15 16 14 14 14 12 11 12 12 11 10 9 7 6 5 4 3 2 0
27 27 27 27 28 28 27 27 26 25 24 22 22 20 20 18 16 15 13 12 9 10 13 14 15 17 16 16 15 14 13 13 12 11 10 9 8 7 5 3 2 1 1 0
25 25 25 26 27 27 27 26 25 24 23 21 19 19 17 15 13 13 12 13 14 14 15 14 15 16 16 14 14 14 13 11 10 9 9 8 7 6 5 3 1 1 0 1
24 24 25 26 27 26 26 25 24 22 20 20 19 17 14 12 10 10 11 13 14 14 16 16 17 16 15 14 14 13 11 10 9 7 6 5 5 5 4 3 1 -0 -1 -1
23 24 26 26 27 26 25 24 21 19 19 18 17 15 12 10 8 9 11 11 12 13 16 18 17 16 15 15 12 11 9 8 7 6 5 3 1 2 1 1 -0 -2 -1 -2
24 24 24 24 24 23 22 19 18 17 17 17 15 13 10 7 8 9 12 12 13 14 15 15 14 14 14 14 12 11 10 8 6 4 2 1 -1 -2 -1 -2 -2 -3 -3 -3
23 23 22 22 21 19 19 18 17 17 16 15 15 12 9 9 11 11 11 11 14 14 14 14 14 14 13 12 11 10 8 7 5 3 1 -2 -4 -4 -5 -5 -5 -5 -5 -6
22 21 20 19 19 17 17 18 17 16 15 14 13 11 11 10 11 12 12 11 15 15 16 15 14 13 12 12 11 10 9 7 5 4 2 0 -2 -5 -6 -6 -7 -7 -8 -8
23 21 20 19 19 19 19 18 16 16 15 13 12 12 12 12 13 10 8 15 16 16 15 14 13 11 10 9 8 6 6 5 4 3 2 1 -0 -3 -4 -6 -7 -8 -9 -9
23 22 21 21 21 20 19 18 17 16 14 13 13 12 13 12 13 13 12 14 15 16 14 13 11 9 8 7 5 5 4 4 4 3 2 1 -0 -2 -4 -6 -7 -8 -9 -9
22 23 23 22 21 20 20 19 18 17 15 15 14 13 16 14 11 12 13 14 16 15 14 12 10 8 7 5 5 5 4 3 3 3 3 3 2 -1 -4 -5 -6 -8 -9 -9
22 22 23 23 22 21 21 19 18 18 17 15 15 15 16 15 13 13 13 15 15 15 13 10 8 7 7 7 6 5 5 5 4 5 4 4 2 1 -3 -5 -6 -7 -9 -9
23 23 22 22 22 21 21 20 19 18 17 16 15 14 14 13 11 12 12 13 14 12 10 8 7 7 6 6 6 6 5 4 4 4 3 3 2 1 -3 -5 -6 -7 -9 -9